User: anonymous   Login
Location: Caltech
(34.1382°N, 118.1253°W)
Time: 03:57:37
(UTC-07:00)
Language:

Cosmos 2084 - Orbit

View from above orbital plane
View from above orbital plane
View from above satellite
View from above satellite

Ground track
Ground track

The orbit data is extracted from the following two-line orbital elements,

1 20663U 90055A   17149.85837118 +.00000266 +00000-0 +39775-4 0  9998
2 20663 062.7923 289.3026 0140760 088.2324 273.4885 14.91569389457067
Epoch (UTC): 29 May 2017 20:36:03
Eccentricity: 0.0140760
inclination: 62.7923°
perigee height: 495 km
apogee height: 691 km
right ascension of ascending node: 289.3026°
argument of perigee: 88.2324°
revolutions per day: 14.91569389
mean anomaly at epoch: 273.4885°
orbit number at epoch: 45706

The dashed part of the orbit path shows where the satellite is in the earth's shadow,  

DLR